Regional Weather Roundup
Issued by NWS

Home | Current Version | Previous Version | Text Only | Print | Product List | Glossary On
Versions: 1 2 3 4 5 6 7 8 9 10 11 12 13 14 15 16 17 18 19 20 21 22 23 24 25 26 27 28 29 30 31 32 33 34 35 36 37 38 39 40 41 42 43 44 45 46 47 48 49 50
000
ASUS44 KJAN 010410
RWRMS

MISSISSIPPI HOURLY WEATHER ROUNDUP
NATIONAL WEATHER SERVICE JACKSON MS
1100 PM CDT TUE JUN 30 2015

NOTE: "FAIR: INDICATES FEW OR NO CLOUDS BELOW 12,000 FEET WITH NO
SIGNIFICANT WEATHER AND/OR OBSTRUCTIONS TO VISIBILITY.

MSZ001>002-007>008-010>013-018>021-025>028-034>036-010500-
NORTHWEST MISSISSIPPI

CITY           SKY/WX    TMP DP  RH WIND       PRES   REMARKS
CLARKSDALE     FAIR      77  77 100 SE3       30.01R
CLEVELAND      FAIR      76  74  94 SW7       30.02R
GREENWOOD      CLEAR     74  68  81 SW7       30.04R
GREENVILLE     CLEAR     77  70  79 SW14      30.02R
OLIVE BRANCH   CLEAR     73 N/A N/A S6        30.00R
OXFORD         FAIR      73  72  94 SW3       30.04R
TUNICA         CLEAR     73  70  88 CALM      30.00R
$$

MSZ003>006-009-014>017-022>024-029>033-037>039-010500-
NORTHEAST MISSISSIPPI

CITY           SKY/WX    TMP DP  RH WIND       PRES   REMARKS
COLUMBUS AFB   PTCLDY    76  73  88 SW12      30.03R
CORINTH        FAIR      75  72  88 S5        29.99S
GOLDN TRIANGLE MOCLDY    73  68  83 SW10G18   30.04S
STARKVILLE     LGT RAIN  70  68  94 W3G18     30.05S
TUPELO         CLEAR     73  72  96 S6        30.02R
$$

MSZ040-058-010500-
CENTRAL MISSISSIPPI

CITY           SKY/WX    TMP DP  RH WIND       PRES   REMARKS
JACKSON INTL   MOCLDY    73  67  81 SW7       30.07R
JACKSON HAWKNS PTCLDY    72  67  84 W9        30.07R
MERIDIAN KEY   CLOUDY    70  67  90 S6        30.08R
MERIDIAN NAS   CLOUDY    72  68  87 S5        30.06R
VICKSBURG      MOCLDY    73  68  84 VRB3      30.06F
$$

MSZ059>079-010500-
SOUTH MISSISSIPPI

CITY           SKY/WX    TMP DP  RH WIND       PRES   REMARKS
BROOKHAVEN       N/A     73  70  88 S6        30.11R
HATTIESBURG    CLOUDY    73  66  78 NW3       30.11R
MCCOMB         CLOUDY    70  69  97 W6        30.11F
NATCHEZ        CLOUDY    73  70  88 W6        30.10S
PINE BELT      CLOUDY    72  64  78 SW3       30.12R
$$

MSZ080>082-010500-
COASTAL MISSISSIPPI

CITY           SKY/WX    TMP DP  RH WIND       PRES   REMARKS
BILOXI         PTCLDY    76  71  85 W3        30.09S
PASCAGOULA     PTCLDY    75  73  93 CALM      30.09R
GULFPORT       PTCLDY    75  72  90 CALM      30.09S
$$


USA.gov is the U.S. government's official web portal to all federal, state and local government web resources and services.